Dewpoint
73 73 71 71 72 72 69 65 52 53 52 48 48 50 50 57 57 54 54 56 55 59 60 59 57 56 57 55 56 57 59 54 54 49 46 53 70 71 72 72 73 73 73 74 74 74 74 74 75 75 75 75 75 75 75 75 75 75 75 74 74 74 74 75 74 74 75 75 75 75 75 75 75 75 75 75 75 75 75 75 75 75 76 76 76 75 75 75 75 75 75 75 75 75 75 75 75
74 72 72 72 73 69 64 63 52 50 49 48 50 53 52 55 53 53 53 55 56 55 58 58 57 61 60 59 59 57 57 62 58 62 66 69 72 72 72 73 73 73 73 74 74 74 75 75 75 75 75 75 75 75 75 75 75 74 74 74 74 74 74 74 73 74 75 75 75 75 75 75 75 75 75 75 75 75 76 75 75 75 76 76 75 75 76 75 75 75 75 75 75 75 75 75 75
72 71 72 73 71 67 66 63 48 46 46 45 48 52 54 53 53 54 56 57 58 58 59 59 60 60 57 58 55 56 53 64 66 67 67 71 69 71 72 73 73 73 73 74 74 74 75 75 75 75 75 75 75 74 75 75 74 74 74 74 74 74 74 74 73 74 74 75 75 75 75 75 75 75 75 76 76 76 75 75 75 75 75 76 75 75 75 75 75 75 75 75 75 75 75 75 75
70 71 71 70 66 64 58 57 51 48 46 46 47 52 53 53 54 56 58 60 58 58 58 57 55 58 58 56 58 60 60 61 65 67 67 69 69 72 72 73 74 73 74 74 74 75 75 75 75 75 75 75 75 75 75 74 74 74 74 74 74 74 74 73 74 74 75 75 75 75 75 75 75 75 75 76 75 76 75 75 75 75 75 76 76 74 74 74 74 74 74 75 75 75 75 75 75
75 74 71 68 64 59 57 54 53 50 47 48 47 51 55 54 55 56 56 57 57 55 56 56 56 58 60 58 59 57 57 65 66 67 68 70 72 72 72 73 73 73 73 74 74 74 75 76 75 75 75 75 75 75 75 75 75 75 74 75 75 75 74 74 74 74 74 74 75 75 75 75 75 75 75 75 75 75 75 75 75 76 75 75 76 75 75 74 74 75 75 75 75 75 75 75 75
74 72 74 70 63 64 56 51 50 50 51 52 49 50 54 55 56 56 55 54 55 55 57 57 56 56 58 59 61 61 63 61 65 67 69 70 71 72 73 74 73 73 73 74 74 74 75 76 75 75 75 75 75 75 74 74 74 74 75 74 74 74 75 74 74 74 74 75 75 75 75 75 75 75 75 75 75 75 75 75 75 75 75 75 75 75 74 74 74 75 74 75 75 74 74 75 75
73 70 70 67 64 61 52 50 51 52 52 56 54 54 55 57 56 55 54 53 54 56 57 57 58 58 57 60 62 62 63 65 65 67 70 71 72 72 73 73 73 73 73 73 74 74 75 75 75 75 75 75 75 75 75 75 75 75 75 74 74 75 75 74 74 74 74 75 75 75 75 75 75 75 75 75 75 75 75 75 75 75 75 75 75 75 75 74 74 74 75 75 74 74 74 75 75
74 68 66 59 55 55 53 51 53 54 52 58 58 57 57 57 57 55 54 52 52 54 56 57 57 59 59 62 59 63 64 67 68 70 71 71 72 72 72 72 72 73 73 73 73 74 75 75 75 75 75 75 75 75 75 75 75 75 74 75 74 74 75 74 74 75 75 75 75 75 75 75 75 75 75 75 75 75 74 74 74 73 74 75 75 75 74 74 74 75 75 74 74 74 74 74 74
73 70 68 57 52 53 52 52 52 57 57 58 58 62 66 59 60 56 55 55 53 55 56 57 57 56 59 61 61 64 66 69 70 72 71 71 71 71 72 72 72 72 73 73 74 74 75 75 75 75 75 75 75 75 75 75 75 75 75 75 75 75 74 74 74 75 75 75 75 75 75 75 75 75 75 75 75 75 75 75 74 74 74 75 74 74 74 74 73 74 74 74 74 75 74 75 74
71 67 59 55 54 50 49 51 51 52 56 58 59 59 60 61 58 57 55 54 55 56 58 60 59 58 60 60 61 63 66 69 70 70 71 71 71 71 72 72 72 72 73 73 74 74 75 75 75 75 74 74 75 75 75 75 75 74 74 75 75 75 74 74 74 75 75 75 75 75 75 75 75 75 75 75 75 75 74 75 75 74 75 75 75 74 74 74 73 73 73 74 75 75 74 75 75
64 67 63 55 50 48 49 50 54 55 56 58 61 63 63 63 57 57 58 56 58 58 59 59 59 59 61 61 61 65 68 69 69 69 70 70 71 71 72 72 72 73 73 73 74 74 75 75 75 75 74 74 75 75 75 75 74 74 74 75 75 75 75 74 74 75 75 75 75 75 74 74 74 74 75 75 75 74 74 74 74 75 75 75 75 74 73 73 73 73 73 73 73 74 74 75 75
60 61 59 53 52 51 51 52 54 55 57 58 56 61 61 61 58 56 55 55 57 58 57 58 58 61 59 60 61 66 67 68 68 69 70 71 71 71 72 72 72 73 73 74 74 74 74 75 75 74 75 74 74 74 74 74 74 74 74 74 75 74 74 74 74 75 75 75 75 74 74 75 75 75 75 75 75 74 74 75 75 75 75 75 74 74 74 73 73 73 73 73 73 73 74 74 75
61 62 60 56 56 57 56 53 53 57 55 55 56 59 63 59 57 56 56 56 56 55 55 58 60 60 58 60 63 65 65 66 68 69 70 71 71 72 72 72 73 73 74 74 73 73 73 74 74 75 74 74 74 74 74 74 74 74 74 74 74 73 73 74 74 74 75 74 75 74 75 75 75 75 75 75 75 75 75 75 75 75 75 75 75 75 74 73 73 73 73 72 73 74 74 74 74
64 63 61 54 58 58 56 53 54 52 52 55 60 63 63 59 58 59 57 56 56 55 57 60 60 61 60 62 62 63 64 67 68 69 71 71 72 72 72 72 73 73 74 73 73 73 73 74 74 74 74 74 74 75 74 74 74 74 74 74 73 73 74 74 74 74 74 75 75 74 75 75 75 75 75 75 75 75 75 75 75 75 75 75 74 74 75 75 74 73 72 73 73 73 74 74 74
64 66 60 57 55 57 57 54 54 52 52 58 60 61 61 63 60 58 57 55 56 58 59 60 61 56 57 60 60 63 65 67 68 70 71 71 72 72 72 72 73 73 73 73 73 73 73 73 74 74 73 73 73 74 74 75 74 74 74 73 73 74 73 73 74 75 74 75 75 74 75 75 75 75 75 75 75 75 75 75 75 75 75 75 74 74 75 75 75 74 74 73 73 73 73 73 73
67 65 59 54 53 55 56 58 58 54 53 59 60 63 60 60 61 57 59 59 56 58 58 57 60 55 59 60 61 63 66 67 68 70 71 71 71 71 72 72 72 72 73 73 72 73 73 73 73 73 73 73 73 73 73 73 74 74 74 74 74 74 74 73 74 74 74 73 74 74 75 77 77 75 75 75 75 75 75 75 74 75 75 75 75 75 75 76 76 74 74 73 73 73 73 73 73
71 65 55 53 52 55 56 56 56 52 56 58 61 61 58 57 61 61 64 59 56 56 57 57 58 61 61 61 63 65 67 68 70 70 71 71 71 71 71 71 72 72 72 72 72 72 73 73 73 73 73 73 73 73 73 73 74 74 75 74 73 74 74 74 74 74 74 74 75 75 76 75 74 74 75 75 76 76 74 75 75 74 75 74 75 75 75 75 75 75 75 71 74 73 74 75 73
65 59 55 52 53 55 57 57 58 60 57 58 60 61 59 55 58 58 58 56 58 55 56 59 62 62 62 63 64 66 67 68 69 69 70 70 70 70 70 70 71 70 71 72 72 73 73 73 72 72 72 73 73 73 72 73 75 74 73 73 74 73 73 74 75 75 75 75 76 75 75 75 74 75 76 77 76 77 77 75 75 74 74 75 75 75 75 75 75 75 75 74 73 74 78 76 76
61 58 55 51 56 56 59 60 60 59 57 60 61 62 60 57 57 58 55 55 54 54 56 60 61 62 63 64 65 66 67 67 68 69 69 69 69 69 69 70 70 70 71 71 72 73 73 72 73 73 72 73 73 73 73 73 73 72 72 73 74 74 74 75 74 75 74 74 75 74 75 74 75 74 76 76 77 77 77 75 74 74 75 75 75 76 76 76 76 76 76 76 77 78 75 75 75
65 58 54 55 59 61 63 64 61 62 62 61 61 62 60 58 58 58 55 53 54 54 57 60 60 61 62 64 66 66 67 67 68 68 68 68 69 69 69 69 69 70 70 71 72 73 73 72 72 73 72 72 72 72 72 71 72 72 73 72 73 74 74 74 74 74 74 74 74 74 74 75 74 73 77 77 77 75 75 76 76 76 77 76 77 75 76 76 76 76 76 76 77 76 75 75 75
62 58 55 57 62 59 61 66 65 64 63 62 61 60 58 58 58 55 55 53 54 55 57 58 60 61 62 64 65 66 66 67 67 68 68 68 68 69 69 69 69 70 71 71 72 72 72 72 72 72 73 72 72 72 71 71 71 73 72 72 72 73 73 73 73 74 74 74 74 74 74 74 73 73 73 74 74 74 74 74 74 74 74 74 76 73 74 73 74 73 73 74 74 75 75 75 75
62 59 61 62 63 60 64 66 64 66 66 62 60 56 55 59 57 55 53 52 52 54 55 58 61 62 62 64 65 66 66 66 67 67 67 67 67 68 68 69 70 70 71 71 71 72 72 73 72 72 73 73 72 72 71 73 72 72 72 72 73 73 73 73 73 73 74 73 74 75 74 73 73 73 73 73 73 74 74 73 73 73 73 73 74 73 72 72 72 72 73 72 72 73 73 73 74
55 58 64 65 65 62 64 64 62 63 61 61 59 62 62 56 56 56 54 53 55 58 56 60 62 62 63 64 65 65 65 66 66 67 67 67 67 67 68 69 69 70 71 71 71 72 72 72 72 73 72 72 72 72 72 72 72 72 73 73 72 73 73 73 73 73 73 74 74 75 73 73 72 73 73 73 73 73 73 73 73 73 73 73 73 72 71 71 71 71 71 72 71 71 70 71 72
57 56 63 64 64 63 63 62 62 61 61 61 62 66 61 57 53 57 55 57 59 57 60 61 62 62 63 64 64 65 65 66 66 67 67 67 67 67 68 68 69 70 71 70 71 71 71 72 73 73 72 72 71 71 72 72 72 72 73 74 73 74 73 73 73 74 74 74 75 75 75 73 73 73 73 73 73 73 73 73 73 73 73 73 73 73 71 71 71 71 71 71 71 71 70 70 70
59 58 63 64 65 65 64 62 61 64 63 63 64 61 60 57 56 56 56 57 56 59 61 61 62 62 63 63 64 64 65 65 66 66 67 67 67 68 68 68 69 70 70 70 70 71 71 72 71 72 72 71 71 71 71 72 72 72 73 73 73 74 73 73 74 74 74 74 75 75 75 73 73 73 73 73 73 73 73 73 73 73 73 73 73 72 72 72 71 71 71 71 71 71 71 70 71
61 60 64 64 63 64 64 61 62 64 63 63 61 61 62 60 59 55 58 57 58 60 61 61 62 62 62 63 63 64 64 65 65 66 66 66 67 67 67 68 69 69 70 70 70 70 71 71 71 71 72 71 71 71 71 71 72 72 73 73 73 74 73 73 74 74 74 73 74 75 75 75 74 73 73 73 72 72 72 72 72 72 72 73 73 73 72 71 71 71 71 71 70 70 70 71 72
64 63 63 62 63 64 64 60 62 63 62 62 60 60 60 62 57 51 59 56 59 60 60 61 61 61 62 62 63 63 64 64 64 65 66 66 66 66 67 68 69 69 70 70 70 71 71 71 71 72 71 72 71 71 71 71 72 72 73 73 73 73 73 74 74 74 73 73 74 74 75 75 75 74 73 73 72 72 72 72 72 72 72 72 73 72 72 72 71 71 70 70 71 71 71 71 71
63 62 62 61 62 63 64 62 62 62 60 62 60 59 59 60 58 54 56 55 59 59 60 60 61 61 61 62 62 63 63 64 64 64 64 64 65 66 66 67 68 69 69 70 70 71 70 71 71 72 72 72 71 71 71 71 71 72 73 73 73 73 73 73 74 73 74 73 74 74 74 74 75 74 73 73 73 73 72 72 71 71 71 71 72 71 71 71 71 71 71 72 72 72 72 72 72
63 62 58 59 60 59 62 62 62 62 61 63 61 60 59 58 56 57 55 55 58 59 59 60 60 61 61 61 61 62 62 63 64 64 64 64 65 66 66 67 68 69 70 70 70 71 70 71 71 71 71 72 71 70 70 70 71 71 73 72 73 73 73 73 73 73 73 73 73 73 73 73 75 74 73 73 74 72 72 72 71 72 71 72 71 71 72 73 72 72 72 73 73 74 72 71 71
63 61 58 56 55 55 61 64 63 61 63 64 63 51 55 57 59 57 57 53 56 58 59 59 59 60 60 60 60 60 61 62 63 63 63 64 65 66 66 67 69 69 70 70 70 70 71 71 71 71 71 71 71 70 71 71 71 72 73 72 73 73 73 73 73 73 73 73 73 73 73 73 74 73 73 72 72 71 72 72 72 72 73 73 74 74 74 72 73 72 73 73 73 73 71 70 70
57 59 57 53 51 50 58 62 62 59 64 63 62 51 52 55 58 58 58 53 53 55 57 58 58 58 57 57 57 58 59 61 62 62 63 64 65 66 67 67 68 69 70 70 70 70 71 71 71 71 71 71 71 71 71 71 71 72 72 73 73 73 73 72 72 72 73 73 73 73 73 73 74 73 73 73 72 72 72 72 73 73 76 76 75 75 74 74 74 73 75 73 70 70 71 72 70
57 51 49 51 50 50 58 62 61 57 62 64 59 51 54 54 57 61 60 56 52 52 53 54 54 54 53 55 56 57 59 61 62 62 64 65 66 66 66 67 68 69 69 70 70 70 70 71 71 70 71 71 71 72 71 71 71 72 72 73 72 72 72 72 72 72 72 72 73 72 72 73 74 74 74 73 72 73 73 73 73 75 77 76 75 74 76 75 75 73 73 74 70 69 71 69 71
51 49 47 48 50 53 56 59 62 63 61 62 59 52 54 56 57 61 65 56 54 52 51 51 51 51 53 55 56 58 60 61 62 63 64 65 66 66 66 68 68 69 69 70 70 70 70 70 71 71 71 71 71 71 71 72 72 72 72 72 72 72 72 71 71 72 72 71 71 71 72 73 74 75 75 75 74 74 73 73 74 75 77 75 74 74 74 76 75 73 74 75 71 72 69 68 69
46 51 48 49 50 52 51 57 61 62 60 57 60 55 55 58 61 61 62 55 53 51 51 50 52 52 54 56 57 58 59 60 61 63 64 65 66 66 67 69 69 69 70 70 70 70 70 70 71 71 71 71 71 71 71 71 71 72 72 72 72 71 71 71 71 71 71 71 71 71 72 73 75 76 76 76 75 74 74 74 74 76 76 74 74 73 74 76 76 74 74 75 74 73 71 69 69
45 48 48 49 53 54 53 53 57 60 60 57 58 58 57 59 59 59 63 55 52 51 51 51 53 54 55 56 57 58 59 60 61 63 64 65 66 66 67 68 69 69 69 69 70 70 70 70 71 72 71 71 71 71 72 71 71 71 72 72 72 70 71 71 71 70 70 70 70 71 72 75 77 77 76 76 75 75 75 75 75 76 75 74 73 73 74 76 76 75 73 75 74 74 72 70 70
48 50 49 49 49 51 52 57 61 60 58 57 57 55 56 58 59 58 61 57 52 51 53 54 54 55 55 56 57 58 59 59 61 63 64 66 66 67 67 68 68 69 69 69 70 70 70 71 71 71 71 70 71 71 71 71 71 71 71 71 70 71 69 71 70 70 70 69 70 71 73 75 76 77 76 76 75 76 75 75 76 75 75 73 73 73 74 75 76 75 74 76 73 72 73 73 72
52 52 50 51 52 55 58 59 61 62 59 57 56 57 57 58 58 58 60 60 52 52 53 54 55 55 55 55 56 57 58 59 61 63 64 66 66 67 67 67 68 68 69 69 68 69 70 70 71 70 70 70 70 70 70 70 70 70 70 70 69 69 69 69 70 69 69 68 70 71 74 76 76 77 77 76 75 77 75 75 75 75 76 75 75 74 74 75 77 75 75 74 73 72 70 73 73
46 51 50 50 53 53 57 58 61 63 59 56 57 57 57 57 60 60 61 57 52 53 54 54 55 55 55 55 56 57 58 59 61 63 64 65 66 67 67 67 69 68 68 68 68 68 69 70 70 70 70 70 70 70 70 70 70 70 69 69 68 68 70 70 69 69 68 68 71 72 75 76 76 76 78 75 77 75 74 75 75 74 75 75 77 75 76 77 74 74 74 72 73 73 72 74 73
51 47 50 50 52 57 59 60 61 62 59 56 57 55 55 56 57 58 60 61 61 59 54 54 55 55 55 54 56 57 57 58 60 62 64 65 66 66 67 67 68 68 68 68 68 68 68 69 70 70 70 70 70 70 70 69 70 70 69 69 69 68 69 70 68 70 70 69 70 73 75 76 76 76 77 77 76 75 74 74 75 74 75 77 74 74 74 74 74 73 74 72 71 71 74 75 75
50 51 48 47 52 52 48 57 60 60 59 57 56 54 55 58 59 58 58 61 63 64 62 59 57 55 55 55 55 56 57 58 59 62 63 64 65 66 66 67 67 68 68 68 68 68 68 70 70 70 70 70 70 70 71 70 70 70 70 69 69 69 68 70 70 70 70 70 70 73 75 76 76 76 76 77 77 76 76 75 75 76 75 76 75 74 74 74 75 74 73 74 72 70 71 71 76
50 50 50 52 54 54 53 55 59 59 59 58 56 54 54 56 56 55 57 61 62 63 61 60 60 60 57 57 57 56 56 58 59 61 63 64 65 66 66 67 67 67 68 67 67 68 68 68 70 70 70 70 70 71 71 70 71 70 70 70 70 69 70 69 68 68 69 70 71 73 74 76 76 76 76 76 76 76 76 76 76 75 75 75 76 75 75 75 75 74 74 74 73 71 70 72 71
48 51 50 51 55 55 57 58 57 55 54 56 54 49 50 54 55 55 55 58 59 61 59 59 58 58 58 56 56 57 57 58 59 61 62 63 64 65 66 66 66 67 67 67 67 68 68 68 69 70 70 70 70 71 71 70 71 68 68 67 67 67 66 67 66 66 67 69 70 71 74 75 75 76 75 76 76 76 76 76 75 75 75 76 77 76 76 75 74 74 74 74 74 74 72 71 70
44 45 52 55 56 57 57 56 53 48 47 51 55 48 44 50 53 55 55 56 57 58 60 59 59 59 58 57 57 56 56 58 59 61 62 63 64 65 65 65 66 66 67 67 67 67 68 68 69 69 70 70 70 70 71 71 70 68 68 67 66 66 66 67 68 67 67 68 71 72 73 75 76 75 75 75 76 77 76 75 75 75 74 75 78 77 76 74 73 73 75 74 74 76 72 71 71
44 48 55 57 57 56 55 53 50 50 54 55 56 51 44 43 49 53 55 55 55 56 58 59 59 59 58 57 56 57 57 58 59 60 61 62 64 64 64 65 65 66 66 66 66 67 68 69 69 69 70 71 70 70 70 71 69 69 68 67 68 67 66 66 68 68 68 71 72 72 73 74 75 75 75 75 75 76 77 75 75 75 75 75 76 77 75 75 75 76 77 75 76 76 72 71 70
45 53 57 56 56 56 54 52 52 54 53 49 54 55 46 44 48 55 55 53 54 54 56 58 59 59 59 58 57 57 57 58 58 59 60 61 63 64 64 64 65 65 65 65 66 67 68 68 69 69 69 70 70 70 70 70 71 69 68 67 68 69 67 67 70 71 71 73 71 72 73 73 75 75 75 75 75 75 77 76 75 75 75 75 77 77 76 76 75 75 75 74 73 74 75 73 72
56 57 57 56 55 54 53 50 51 48 43 44 51 54 45 45 48 51 54 52 52 53 54 56 58 59 59 59 59 57 57 58 58 59 59 61 62 63 63 64 64 64 65 66 66 66 67 68 68 68 69 70 69 70 71 70 70 70 68 67 67 68 69 69 70 70 71 72 72 72 73 73 73 74 74 74 74 75 76 77 76 75 75 74 76 76 75 75 75 75 75 73 73 72 74 75 73
56 54 53 52 52 52 51 48 46 42 38 41 48 54 46 41 47 51 51 51 52 52 54 55 57 59 60 59 59 58 57 58 58 58 59 60 61 62 62 63 63 64 64 65 65 66 67 67 68 68 68 69 70 69 70 70 70 70 68 67 67 68 68 69 70 70 71 71 71 71 72 72 73 73 73 74 74 74 75 77 76 75 75 77 77 77 76 74 74 74 74 74 75 73 73 74 75
53 51 51 49 48 46 45 42 43 38 36 40 46 52 48 42 44 49 53 56 57 52 51 53 54 57 59 60 60 59 57 57 57 58 58 59 61 61 62 62 63 63 64 65 65 66 67 67 68 68 68 69 69 69 70 70 70 70 68 67 67 68 68 68 69 69 70 70 71 71 72 72 72 72 73 73 73 73 75 76 77 76 76 76 76 76 76 75 74 74 74 74 74 74 74 76 73
51 50 47 44 39 38 39 36 37 38 36 43 50 52 49 48 46 51 55 55 55 57 53 52 53 55 58 59 60 60 58 58 57 58 59 59 59 60 61 62 63 63 64 64 65 66 67 67 67 67 67 68 69 69 70 70 70 70 69 68 67 68 69 69 69 69 70 70 71 71 71 71 72 72 72 72 72 73 74 75 75 76 76 76 76 76 76 75 75 74 74 74 74 74 74 75 74
49 47 43 40 36 30 27 30 34 35 39 46 50 52 47 49 49 52 52 54 58 58 59 60 55 55 58 59 60 59 59 58 58 58 58 59 59 60 61 61 62 63 63 64 65 67 67 67 67 67 67 68 69 69 69 69 70 70 70 68 68 69 69 69 69 68 69 70 71 71 70 71 71 71 71 72 72 72 74 74 75 75 76 76 76 76 76 76 75 74 74 74 74 75 75 75 74
49 45 43 41 41 36 30 32 30 34 39 46 51 45 43 43 45 55 57 61 63 64 64 62 61 58 59 61 61 59 60 59 59 58 58 59 59 60 60 61 61 62 63 64 64 66 67 67 67 68 67 68 68 69 69 69 69 70 70 69 68 68 68 69 69 69 69 70 70 70 71 71 71 71 72 72 73 73 74 74 75 75 75 75 76 76 76 76 76 76 76 74 75 74 74 75 74
39 41 40 40 39 41 26 33 35 40 44 46 47 44 44 46 50 57 59 61 62 64 63 65 62 62 62 61 61 60 60 59 59 59 58 59 60 60 60 61 61 62 63 64 64 66 67 67 67 67 67 67 68 69 69 69 69 70 70 70 69 70 71 69 70 72 71 70 70 70 70 71 71 71 72 73 72 74 74 74 74 75 75 75 75 75 75 76 76 75 75 75 74 75 75 75 75
38 41 39 38 39 45 44 45 44 41 38 41 44 45 46 47 46 54 58 59 60 62 62 63 63 62 62 61 61 61 61 60 60 60 59 60 60 60 60 60 60 61 62 63 64 65 67 67 67 67 67 67 67 69 69 69 69 70 70 70 70 70 70 69 68 70 70 70 71 70 70 70 71 71 71 72 72 73 74 74 73 73 74 75 75 75 75 76 76 75 75 75 74 74 76 76 75
34 37 41 35 40 40 32 30 36 34 32 33 42 41 41 41 39 52 55 56 58 60 61 62 63 62 61 61 61 61 61 61 60 60 60 60 61 60 61 61 60 61 61 63 64 65 66 67 67 67 67 67 67 68 68 69 69 69 70 70 70 71 71 70 69 69 70 71 71 71 71 71 71 71 71 71 73 72 73 75 74 73 73 74 74 74 75 75 76 75 75 75 74 75 75 75 76
29 31 31 26 24 24 27 36 31 31 31 30 36 43 44 43 42 48 51 54 56 58 60 60 62 63 63 61 62 63 63 63 63 61 60 60 61 61 61 61 60 61 62 62 63 64 65 66 66 66 66 66 67 67 68 69 69 68 69 70 70 70 71 71 71 71 71 70 70 70 70 70 70 72 73 73 73 72 72 72 74 73 73 73 74 74 75 75 75 75 75 75 75 76 75 75 75
30 29 26 33 29 30 28 30 32 33 30 32 33 37 36 44 46 49 51 53 55 58 59 60 61 63 64 62 63 63 63 63 63 62 61 60 61 62 62 61 61 61 62 62 63 64 64 65 67 66 66 67 67 67 68 68 68 68 68 69 70 71 71 71 71 71 70 70 70 70 70 70 70 71 72 72 72 72 72 72 71 72 71 72 72 73 73 74 75 75 74 74 75 75 75 75 74
27 28 30 30 34 35 32 34 34 29 32 30 30 31 36 41 47 54 56 55 55 58 59 61 62 63 64 64 64 64 64 64 64 64 64 63 61 61 62 63 62 62 63 63 63 64 65 65 66 66 66 66 66 67 67 68 68 69 69 69 69 70 70 71 71 70 70 71 71 72 70 70 71 71 71 71 71 72 72 72 71 72 71 72 73 73 73 74 75 75 75 75 75 75 75 74 75
27 30 28 29 30 30 29 29 33 38 33 30 30 30 37 42 58 59 58 58 58 61 62 62 63 64 64 65 65 64 64 64 64 65 66 68 67 64 63 65 65 63 63 63 64 64 65 66 66 67 67 66 66 67 67 68 69 69 68 68 69 70 70 71 70 70 70 70 70 71 71 71 70 71 72 71 72 71 72 72 71 71 72 72 73 73 73 74 75 75 74 74 74 75 75 75 75